Grand Etang, Nova Scotia

11:20 PM ADT on May 22, 2017 (GMT -0300)
Grand Etang

Weather History for CWZQ - January, 2014

Change the Weather History Date:

Friday, January 17, 2014

  Actual Average Record
Temperature  
Mean Temperature -0 °F -  
Max Temperature 42 °F - - ()
Min Temperature -43 °F - - ()
Degree Days  
Heating Degree Days 66    
Moisture  
Dew Point 30 °F    
Average Humidity 92    
Maximum Humidity 100    
Minimum Humidity 40    
Precipitation  
Precipitation 0.00 in - - ()
Sea Level Pressure  
Sea Level Pressure 29.94 in    
Wind  
Wind Speed 5 mph ()    
Max Wind Speed 16 mph    
Max Gust Speed 20 mph    
Visibility 3.0 miles    
Events      
T = Trace of Precipitation, MM = Missing Value Source: Averaged Metar Reports

Daily Weather History Graph

Daily Weather History Graph

Search for Another Location

Airport or City:

Trip Planner

Search our weather history database for the weather conditions in past years. The results will help you decide how hot, cold, wet, or windy it might be!

Date:

Astronomy

Jan. 17, 2014 Rise Set
Actual Time 7:42 AM AST 4:46 PM AST
Civil Twilight 7:08 AM AST 5:20 PM AST
Nautical Twilight 6:31 AM AST 5:57 PM AST
Astronomical Twilight 5:55 AM AST 6:33 PM AST
Moon 6:37 PM AST (1/17) 8:00 AM AST (1/17)
Length of Visible Light 10h 11m
Length of Day
9h 03m
Full, 98% of the Moon is Illuminated
Jan 17
Full
Jan 24
Last Quarter
Jan 30
New
Feb 6
First Quarter
Feb 14
Full

Hourly Weather History & Observations

Time (AST) Temp. Windchill Dew Point Humidity Pressure Visibility Wind Dir Wind Speed Gust Speed Precip Events Conditions
12:00 AM 36.0 °F 31.1 °F 34.7 °F 95% 29.83 in - SW 5.8 mph - N/A   Unknown
12:20 AM 35.2 °F 28.8 °F 34.2 °F 96% - - SW 8.1 mph - N/A   Unknown
12:40 AM 35.1 °F 31.0 °F 34.2 °F 97% - - SSW 4.6 mph - N/A   Unknown
1:00 AM 35.8 °F - 34.7 °F 96% 29.83 in - SSE 1.2 mph - N/A   Unknown
1:20 AM 38.1 °F 33.7 °F 37.2 °F 97% - - SE 5.8 mph - N/A   Unknown
1:40 AM 39.4 °F 35.2 °F 38.5 °F 97% - - ESE 5.8 mph - N/A   Unknown
2:00 AM -29 °F - -36 °F 54% 29.86 in 3 mi North 16.1 mph - -   Light Haze
2:00 AM 35.4 °F 30.5 °F 34.2 °F 95% 29.82 in - WNW 5.8 mph - N/A   Unknown
2:20 AM 34.5 °F 30.4 °F 33.6 °F 97% - - WNW 4.6 mph - N/A   Unknown
2:40 AM 33.6 °F 30.6 °F 31.3 °F 91% - - NW 3.5 mph - N/A   Unknown
3:00 AM 32.9 °F 28.5 °F 32.0 °F 96% 29.86 in - NNW 4.6 mph - N/A   Unknown
3:20 AM 33.3 °F 25.7 °F 31.6 °F 94% - - North 9.2 mph - N/A   Unknown
3:40 AM 33.1 °F 26.9 °F 31.6 °F 94% - - North 6.9 mph - N/A   Unknown
4:00 AM 33.4 °F 29.1 °F 31.5 °F 92% 29.88 in - North 4.6 mph - N/A   Unknown
4:20 AM 33.3 °F 28.9 °F 31.6 °F 94% - - NNW 4.6 mph - N/A   Unknown
4:40 AM 32.9 °F 29.8 °F 32.0 °F 96% - - NW 3.5 mph - N/A   Unknown
5:00 AM 32.9 °F - 32.0 °F 96% 29.89 in - NNW 2.3 mph - N/A   Unknown
5:20 AM 31.3 °F - 32.0 °F 100% - - WNW 2.3 mph - N/A   Unknown
5:40 AM 31.3 °F - 32.0 °F 100% - - NW 2.3 mph - N/A   Unknown
6:00 AM 31.3 °F - 31.8 °F 100% 29.92 in - Calm Calm - N/A   Unknown
6:20 AM 31.3 °F 27.9 °F 31.8 °F 100% - - SW 3.5 mph - N/A   Unknown
6:40 AM 31.6 °F - 31.5 °F 99% - - SW 1.2 mph - N/A   Unknown
7:00 AM 31.6 °F - 31.6 °F 100% 29.96 in - SW 1.2 mph - N/A   Unknown
7:20 AM 31.6 °F 28.3 °F 31.6 °F 100% - - SSW 3.5 mph - N/A   Unknown
7:40 AM 31.6 °F 28.3 °F 31.6 °F 100% - - South 3.5 mph - N/A   Unknown
8:00 AM -31 °F - -38 °F 52% 29.91 in 3 mi NNW 15.0 mph - -   Light Haze
8:00 AM 31.5 °F - 31.8 °F 100% 29.97 in - SSW 1.2 mph - N/A   Unknown
8:20 AM 31.5 °F - 31.8 °F 100% - - WSW 1.2 mph - N/A   Unknown
8:40 AM 31.5 °F - 31.8 °F 100% - - SW 1.2 mph - N/A   Unknown
9:00 AM 33.4 °F - 31.3 °F 92% 29.97 in - WSW 1.2 mph - N/A   Unknown
9:20 AM 33.1 °F 26.9 °F 31.6 °F 94% - - WSW 6.9 mph - N/A   Unknown
9:40 AM 33.3 °F 27.9 °F 31.5 °F 93% - - SW 5.8 mph - N/A   Unknown
10:00 AM 33.3 °F 27.1 °F 31.6 °F 94% 30.00 in - WSW 6.9 mph - N/A   Unknown
10:20 AM 33.3 °F 27.9 °F 31.5 °F 93% - - SW 5.8 mph - N/A   Unknown
10:40 AM 34.7 °F 30.6 °F 34.0 °F 97% - - SSW 4.6 mph - N/A   Unknown
11:00 AM 34.3 °F 28.4 °F 33.6 °F 97% 30.02 in - SW 6.9 mph - N/A   Unknown
11:20 AM 34.7 °F 29.6 °F 33.8 °F 97% - - SW 5.8 mph - N/A   Unknown
11:40 AM 36.0 °F 31.1 °F 34.9 °F 96% - - SSW 5.8 mph - N/A   Unknown
12:00 PM 32.9 °F 23.7 °F 31.8 °F 96% 30.02 in - SW 12.7 mph - N/A   Unknown
12:20 PM 33.6 °F 27.5 °F 31.5 °F 92% - - SSW 6.9 mph - N/A   Unknown
12:40 PM 34.0 °F 28.0 °F 33.1 °F 96% - - SW 6.9 mph - N/A   Unknown
1:00 PM 34.3 °F 28.4 °F 33.3 °F 96% 30.01 in - SW 6.9 mph - N/A   Unknown
1:20 PM 34.2 °F 28.2 °F 33.1 °F 96% - - SW 6.9 mph - N/A   Unknown
1:40 PM 32.9 °F 28.5 °F 33.4 °F 100% - - SSW 4.6 mph - N/A   Unknown
2:00 PM -40 °F - -48 °F 45% 29.91 in 3 mi NNW 12.7 mph - -   Light Haze
2:00 PM 35.8 °F - 34.5 °F 95% 29.98 in - WSW 2.3 mph - N/A   Unknown
2:20 PM 35.6 °F 32.8 °F 34.2 °F 94% - - West 3.5 mph - N/A   Unknown
2:40 PM 35.4 °F - 34.0 °F 94% - - WNW 2.3 mph - N/A   Unknown
3:00 PM 35.1 °F 32.2 °F 33.6 °F 94% 29.98 in - NW 3.5 mph - N/A   Unknown
3:20 PM 34.2 °F - 32.9 °F 95% - - NNW 1.2 mph - N/A   Unknown
3:40 PM 34.0 °F - 31.3 °F 90% - - NNE 2.3 mph - N/A   Unknown
4:00 PM 31.5 °F - 31.6 °F 100% 29.97 in - NNE 2.3 mph - N/A   Unknown
4:20 PM - - - N/A% - - Calm Calm - N/A   Unknown
4:40 PM 31.6 °F - 30.9 °F 97% - - NNE 1.2 mph - N/A   Unknown
5:00 PM 31.8 °F 27.3 °F 31.3 °F 98% 29.99 in - WSW 4.6 mph - N/A   Unknown
5:20 PM 31.6 °F 26.0 °F 30.9 °F 97% - - SW 5.8 mph - N/A   Unknown
5:40 PM 31.8 °F 27.3 °F 31.5 °F 99% - - SW 4.6 mph - N/A   Unknown
6:00 PM 32.0 °F - 31.3 °F 97% 29.99 in - WNW 1.2 mph - N/A   Unknown
6:20 PM - - - N/A% - - WSW 2.3 mph - N/A   Unknown
6:40 PM 31.5 °F - 31.8 °F 100% - - SSW 1.2 mph - N/A   Unknown
7:00 PM 32.9 °F - 31.8 °F 96% 29.99 in - SSE 2.3 mph - N/A   Unknown
7:20 PM 33.6 °F - 32.9 °F 97% - - East 1.2 mph - N/A   Unknown
7:40 PM 40.8 °F 35.0 °F 38.3 °F 91% - - SSE 9.2 mph - N/A   Unknown
8:00 PM -43 °F - -52 °F 40% 29.93 in 3 mi WNW 6.9 mph - -   Light Haze
8:00 PM 41.9 °F 36.3 °F 39.0 °F 90% 29.98 in - SSE 9.2 mph - N/A   Unknown
8:20 PM 42.8 °F 37.5 °F 39.0 °F 86% - - South 9.2 mph - N/A   Unknown
8:40 PM 42.4 °F 37.5 °F 38.8 °F 87% - - SSE 8.1 mph - N/A   Unknown
9:00 PM 42.4 °F 38.1 °F 39.0 °F 88% 29.98 in - South 6.9 mph - N/A   Unknown
9:20 PM 42.4 °F 38.1 °F 38.8 °F 87% - - South 6.9 mph - N/A   Unknown
9:40 PM 42.3 °F 38.6 °F 38.8 °F 88% - - SSE 5.8 mph - N/A   Unknown
10:00 PM 41.7 °F 36.7 °F 38.1 °F 87% 29.97 in - SE 8.1 mph - N/A   Unknown
10:20 PM 41.5 °F 35.4 °F 38.1 °F 88% - - SE 10.4 mph - N/A   Unknown
10:40 PM 42.1 °F 35.2 °F 38.1 °F 86% - - SE 12.7 mph 19.6 mph N/A   Unknown
11:00 PM 40.1 °F 32.0 °F 38.1 °F 93% 29.94 in - SE 15.0 mph - N/A   Unknown
11:20 PM 42.8 °F 36.2 °F 38.5 °F 85% - - SE 12.7 mph - N/A   Unknown
11:40 PM 42.6 °F 35.9 °F 38.3 °F 85% - - SE 12.7 mph 19.6 mph N/A   Unknown